, MO

(GMT )
Kansas City

Weather History for KMKC - November, 2013

Change the Weather History Date:

Tuesday, November 19, 2013

  Actual Average Record
Temperature  
Mean Temperature 49 °F -  
Max Temperature 61 °F 51 °F 77 °F (2007)
Min Temperature 37 °F 34 °F 24 °F (2014)
Degree Days  
Heating Degree Days 16    
Moisture  
Dew Point 25 °F    
Average Humidity 42    
Maximum Humidity 73    
Minimum Humidity 21    
Precipitation  
Precipitation 0.00 in - - ()
Sea Level Pressure  
Sea Level Pressure 30.14 in    
Wind  
Wind Speed 6 mph (SSE)    
Max Wind Speed 14 mph    
Max Gust Speed 24 mph    
Visibility 10 miles    
Events      
Averages and records for this station are not official NWS values.
T = Trace of Precipitation, MM = Missing Value Source: NWS Daily Summary

Daily Weather History Graph

Daily Weather History Graph

Search for Another Location

Airport or City:

Trip Planner

Search our weather history database for the weather conditions in past years. The results will help you decide how hot, cold, wet, or windy it might be!

Date:

Astronomy

Nov. 19, 2013 Rise Set
Actual Time 7:06 AM CST 5:01 PM CST
Civil Twilight 6:37 AM CST 5:29 PM CST
Nautical Twilight 6:04 AM CST 6:02 PM CST
Astronomical Twilight 5:33 AM CST 6:34 PM CST
Moon 6:53 PM CST 8:46 AM CST
Length of Visible Light 10h 52m
Length of Day
9h 54m
Waning Gibbous, 96% of the Moon is Illuminated
Nov 19
Waning Gibbous
Nov 25
Last Quarter
Dec 2
New
Dec 9
First Quarter
Dec 17
Full

Hourly Weather History & Observations

Time (CST) Temp. Windchill Dew Point Humidity Pressure Visibility Wind Dir Wind Speed Gust Speed Precip Events Conditions
12:54 AM 41.0 °F 39.0 °F 28.9 °F 62% 30.25 in 10.0 mi NE 3.5 mph - N/A   Clear
1:54 AM 37.9 °F - 30.0 °F 73% 30.26 in 10.0 mi Calm Calm - N/A   Clear
2:54 AM 39.0 °F - 30.9 °F 73% 30.25 in 10.0 mi Calm Calm - N/A   Clear
3:54 AM 39.0 °F - 28.0 °F 65% 30.24 in 10.0 mi Calm Calm - N/A   Clear
4:54 AM 37.0 °F 33.3 °F 28.0 °F 70% 30.23 in 10.0 mi NE 4.6 mph - N/A   Clear
5:54 AM 37.0 °F 34.5 °F 27.0 °F 67% 30.23 in 10.0 mi NNE 3.5 mph - N/A   Clear
6:54 AM 37.9 °F - 27.0 °F 65% 30.23 in 10.0 mi Calm Calm - N/A   Clear
7:54 AM 41.0 °F 37.1 °F 26.1 °F 55% 30.23 in 10.0 mi SSE 5.8 mph - N/A   Clear
8:54 AM 46.0 °F 41.9 °F 28.0 °F 50% 30.23 in 10.0 mi South 8.1 mph - N/A   Clear
9:54 AM 51.1 °F - 27.0 °F 39% 30.22 in 10.0 mi SSE 8.1 mph - N/A   Clear
10:54 AM 57.0 °F - 25.0 °F 29% 30.21 in 10.0 mi SSE 3.5 mph - N/A   Clear
11:54 AM 59.0 °F - 21.9 °F 24% 30.17 in 10.0 mi South 13.8 mph 21.9 mph N/A   Clear
12:54 PM 60.1 °F - 24.1 °F 25% 30.14 in 10.0 mi SSE 12.7 mph 18.4 mph N/A   Partly Cloudy
1:54 PM 61.0 °F - 24.1 °F 24% 30.10 in 10.0 mi South 12.7 mph - N/A   Clear
2:54 PM 61.0 °F - 21.0 °F 21% 30.07 in 10.0 mi SSE 13.8 mph 24.2 mph N/A   Clear
3:54 PM 60.1 °F - 21.9 °F 23% 30.05 in 10.0 mi SE 12.7 mph 21.9 mph N/A   Clear
4:54 PM 59.0 °F - 24.1 °F 26% 30.04 in 10.0 mi South 11.5 mph 20.7 mph N/A   Overcast
5:54 PM 57.0 °F - 24.1 °F 28% 30.03 in 10.0 mi SE 11.5 mph 17.3 mph N/A   Partly Cloudy
6:54 PM 55.0 °F - 26.1 °F 33% 30.02 in 10.0 mi SSE 9.2 mph - N/A   Clear
7:54 PM 54.0 °F - 26.1 °F 34% 30.02 in 10.0 mi SE 9.2 mph 19.6 mph N/A   Overcast
8:54 PM 55.0 °F - 21.9 °F 28% 30.01 in 10.0 mi SSE 9.2 mph 21.9 mph N/A   Overcast
9:54 PM 54.0 °F - 21.9 °F 29% 30.01 in 10.0 mi SSE 13.8 mph 20.7 mph N/A   Overcast
10:54 PM 53.1 °F - 23.0 °F 31% 30.01 in 10.0 mi South 12.7 mph 23.0 mph N/A   Overcast
11:54 PM 53.1 °F - 21.9 °F 30% 30.00 in 10.0 mi SSE 9.2 mph 17.3 mph N/A   Overcast